User: anonymous   Login
Location: Dyersburg
(36.0438°N, 89.3789°W)
Time: 19:34:05
(UTC+00:00)
Language:

Tiros 1 - Orbit

View from above orbital plane
View from above orbital plane
View from above satellite
View from above satellite

Ground track
Ground track

The orbit data is extracted from the following two-line orbital elements,

1    29U 60002B   20052.55992408 -.00000142 +00000-0 +99580-5 0  9994
2    29 048.3793 140.2693 0023500 092.7628 267.5974 14.74341880201290
Epoch (UTC): 21 February 2020 13:26:17
Eccentricity: 0.0023500
inclination: 48.3793°
perigee height: 631 km
apogee height: 664 km
right ascension of ascending node: 140.2693°
argument of perigee: 92.7628°
revolutions per day: 14.74341880
mean anomaly at epoch: 267.5974°
orbit number at epoch: 20129

The dashed part of the orbit path shows where the satellite is in the earth's shadow,  

DLR